Location: Bergnershof
(48.9468°N, 10.9431°E)
Time: 23:43:32
(UTC+00:00)

Cosmos 864 Rocket - Pass Details

Date: 03 March 2021
Orbit: 954 x 990 km, 82.9° (Epoch: 13 April)

Event Time Altitude Azimuth Distance (km) Brightness Sun altitude
Rises 19:05:08 0° 181° (S) 3,624 7.4 -20.7°
Reaches altitude 10° 19:07:36 10° 180° (S) 2,685 6.7 -21.1°
Maximum altitude 19:13:44 76° 96° (E) 997 4.3 -22.1°
Drops below altitude 10° 19:19:58 10° 12° (NNE) 2,727 6.9 -23.1°
Sets 19:22:29 0° 11° (N) 3,684 7.6 -23.4°
